www.pogodaiklimat.ru

Погода и климат >> Архив погоды >> Норвегия >> Экофиск


ПОГОДА в Экофиске

  • Прогноз погоды в Экофиске
  • Монитор погоды в Экофиске

АРХИВ ПОГОДЫ в Экофиске

Время (UTC), дата Ветер
(напр.,м/с)
 
Видим.   Явления Облачность Т
(С)
Тd
(С)
f
(%)
Тe
(С)
Тes
(С)
Комфортность P
(гПа)
Po
(гПа)
Тmin
(С)
Tmax
(С)
R
(мм)
R24
(мм)
S
(см)
10 14.08 ЮЗ 4 н/о н/о +14.8 +8.7 67 +14 +14 1012.1 1005.2
11 14.08 ЮЗ 4 н/о н/о +14.9 +7.5 61 +14 +14 1011.9 1005.0
12 14.08 ЮЗ 5
{7}
50 км 9/5 600 м
[Cu med, cong Ac trans]
+15.2 1011.9 1006.7
13 14.08 ЮЗ 5 н/о н/о +15.4 +8.0 61 +14 +14 1011.9 1005.0
14 14.08 ЮЗ 4 н/о н/о +15.4 +8.0 61 +15 +15 1011.6 1004.6
15 14.08 Ю 4 50 м {гроза} 8/1 <50 м
[Cu med, cong Ac As]
1011.3 1006.3
16 14.08 Ю 4 н/о н/о +15.4 +9.2 67 +14 +14 1011.3 1005.3
17 14.08 Ю 5 н/о н/о +15.3 +8.9 66 +14 +14 1010.2 1003.3
18 14.08 ЮВ 6
{7}
20 км {ливн. осадки} 9/3 1000 м
[Cu Sc Ac As]
+15.3 1009.5 1004.5
19 14.08 ЮВ 5 н/о н/о +15.3 +8.8 65 +14 +14 1009.0 1002.1
20 14.08 ЮВ 7 н/о н/о +15.3 +9.1 66 +14 +14 1008.4 1001.5
21 14.08 ЮВ 7 20 км {ливн. осадки} 9/5 1000 м
[Cu Sc Ac As]
+15.4 1007.7 1002.5
22 14.08 ЮВ 8 н/о н/о +15.4 +11.1 76 +13 +13 1006.9 1000.1
23 14.08 В 9 н/о н/о +15.3 +12.6 84 +13 +13 1006.0 999.2
00 15.08 В 9
{10}
20 км {гроза} 6/3 1000 м
[Cu Sc Ac trans]
+50.2 1005.2 999.9
01 15.08 В 8 н/о н/о +15.5 +13.6 88 +14 +14 1004.0 997.2
02 15.08 В 8 н/о н/о +15.2 +13.5 90 +13 +13 1002.9 996.1
03 15.08 10 км н/о +50.2 1002.0 996.7
04 15.08 ЮВ 7 н/о н/о +14.6 +13.9 96 +12 +12 1001.2 994.4
05 15.08 В 8 н/о н/о +14.5 +13.9 96 +12 +12 1000.3 993.5
06 15.08 ЮВ 6
{11}
10 км 9/8 300 м
[Sc Ac As]
+50.2 999.7 994.4
07 15.08 Ю 5 н/о н/о +15.8 +14.6 93 +15 +15 999.7 992.8
08 15.08 Ю 6 н/о н/о +15.7 +14.5 93 +14 +14 999.9 993.0
09 15.08 ЮЗ 5 50 км {метель} 6/4 300 м
[Cu med, cong Ac trans Ci ing]
+15.9 999.7 994.6
10 15.08 ЮЗ 7 н/о н/о +15.9 +14.3 90 +14 +14 1000.0 993.2
11 15.08 З 8 н/о н/о +16.5 +13.9 85 +15 +15 1000.5 993.7
12 15.08 З 8
{9}
50 км {метель} 8/8 300 м
[Cu Sc]
+17.8 1000.9 995.8
13 15.08 З 8 н/о н/о +16.5 +14.1 86 +15 +15 1001.8 995.0
14 15.08 З 8 н/о н/о +17.0 +12.9 77 +16 +16 1002.6 995.8
15 15.08 З 8 20 км 10/9 300 м
[Cu Sc]
+16.8 1003.1 998.0
16 15.08 З 10 н/о н/о +16.0 +13.9 87 +14 +14 1003.8 997.0
17 15.08 З 12 н/о н/о +15.2 +13.9 92 +13 +13 1004.6 997.7
18 15.08 СЗ 11
{14}
20 км {снег} 9/9 200 м
[Cu Sc]
+15.6 1005.5 1000.4
19 15.08 СЗ 12 н/о н/о +14.9 +11.1 78 +12 +12 1007.2 1000.3
20 15.08 СЗ 10 н/о н/о +14.7 +10.2 74 +12 +12 1008.4 1001.5
21 15.08 СЗ 10 20 км 9/9 600 м
[Sc]
+14.6 1009.3 1004.1
22 15.08 СЗ 10 н/о н/о +14.3 +8.1 66 +12 +12 1010.2 1003.3
23 15.08 СЗ 8 н/о н/о +14.2 +7.5 64 +12 +12 1010.7 1003.8
00 16.08 З 7
{14}
50 км 3/1 600 м
[Sc Ci fib]
+14.0 1010.8 1005.8
01 16.08 З 5 н/о н/о +14.0 +7.7 66 +12 +12 1011.4 1004.5
02 16.08 З 5 н/о н/о +13.9 +7.9 67 +12 +12 1011.4 1004.5
03 16.08 З 4 50 км {снег} 6/0
[Ac trans Cs]
+14.1 1011.3 1006.3
04 16.08 ЮЗ 4 н/о н/о +14.5 +9.3 71 +13 +13 1011.3 1004.4
05 16.08 Ю 5 н/о н/о +14.7 +10.2 74 +13 +13 1011.2 1004.3
06 16.08 Ю 8 50 м {морось} 9/1 <50 м
[Cu hum Ac As Cs]
+15.0 1010.9 1005.9
07 16.08 Ю 7 н/о н/о +15.4 +11.4 77 +14 +14 1010.7 1003.8
08 16.08 Ю 7 н/о н/о +15.8 +10.2 69 +14 +14 1010.1 1003.2
09 16.08 Ю 11 50 м {метель} 9/1 <50 м
[Sc Ac As Cs]
+15.8 1009.6 1004.6
10 16.08 Ю 8 н/о н/о +15.6 +10.4 71 +14 +14 1009.0 1002.1
11 16.08 Ю 9 н/о н/о +15.7 +10.7 72 +14 +14 1008.5 1001.7
12 16.08 Ю 13 50 м 9/1 <50 м
[Sc Ac As]
+50.2 1007.8 1002.5
13 16.08 Ю 10 н/о н/о +15.6 +11.6 77 +13 +13 1006.9 1000.0
14 16.08 Ю 11 н/о н/о +15.9 +12.4 80 +14 +14 1006.0 999.2
15 16.08 Ю 11 20 км 10/3 300 м
[Sc As trans]
+15.7 1005.1 1000.0
16 16.08 Ю 11 н/о н/о +16.5 +12.9 79 +15 +15 1004.1 997.3
17 16.08 Ю 12 н/о н/о +15.6 +13.0 85 +13 +13 1003.2 996.4
18 16.08 Ю 12
{14}
10 км {туман} 9/9 300 м
[Cu Sc]
+15.9 1002.6 997.5
19 16.08 Ю 12 н/о н/о +16.1 +13.6 85 +14 +14 1001.5 994.6
20 16.08 Ю 11 н/о н/о +15.2 +14.4 95 +13 +13 1000.6 993.8
21 16.08 Ю 11 4000 м {туман} 10/5 200 м
[Frnb As op]
+15.1 999.9 994.9
22 16.08 Ю 11 н/о н/о +15.0 +14.4 96 +12 +12 998.6 991.8
23 16.08 Ю 11 н/о н/о +15.2 +14.8 97 +13 +13 997.7 990.8
00 17.08 Ю 10
{15}
4000 м {снег} 10/8 200 м
[Frnb As op]
+15.2 996.6 991.8
01 17.08 Ю 9 н/о н/о +15.2 +14.9 98 +13 +13 995.9 989.1
02 17.08 Ю 8 н/о н/о +15.4 +15.1 98 +13 +13 995.4 988.6
03 17.08 Ю 8 4000 м {туман} 8/6 300 м
[Frnb As op]
+15.8 995.0 990.2
04 17.08 Ю 9 н/о н/о +16.1 +15.1 94 +14 +14 994.8 988.0
05 17.08 Ю 8 н/о н/о +16.3 +14.9 91 +15 +15 994.8 988.0
06 17.08 ЮЗ 9
{11}
20 км {дождь} 6/4 200 м
[Cu Sc Ac trans]
+16.1 994.7 989.9
07 17.08 ЮЗ 10 н/о н/о +16.1 +14.7 91 +14 +14 995.2 988.4
08 17.08 ЮЗ 9 н/о н/о +16.3 +13.8 85 +15 +15 995.6 988.8
09 17.08 ЮЗ 8 10 км {метель} 9/6 300 м
[Sc Ac trans]
+16.1 995.8 991.0
10 17.08 ЮЗ 10 н/о н/о +16.2 +13.7 85 +14 +14 996.4 989.6
11 17.08 ЮЗ 10 н/о н/о +16.1 +13.4 84 +14 +14 996.8 990.0
12 17.08 ЮЗ 9
{11}
20 км {метель} 9/9 300 м
[Cu Sc]
+16.1 997.2 992.3
13 17.08 ЮЗ 10 н/о н/о +16.1 +13.2 83 +14 +14 997.6 990.8
14 17.08 ЮЗ 9 н/о н/о +15.9 +11.6 76 +14 +14 998.3 991.6
15 17.08 ЮЗ 10 50 м {ливн. осадки} 4/4 <50 м
[Cu med, cong Ac As]
+16.0 999.0 994.0
16 17.08 ЮЗ 8 н/о н/о +16.5 +10.9 69 +15 +15 999.7 992.9
17 17.08 ЮЗ 7 н/о н/о +16.1 +11.6 75 +15 +15 999.8 993.0
18 17.08 Ю 8
{12}
20 км 1/1 600 м
[Cu hum]
+16.2 999.9 994.9
19 17.08 Ю 8 н/о н/о +16.1 +12.5 79 +14 +14 1000.0 993.2
20 17.08 Ю 8 н/о н/о +16.1 +12.2 78 +14 +14 1000.2 993.4
21 17.08 Ю 8 20 км 1/0
[Ac trans]
+16.2 1000.4 995.4
22 17.08 Ю 7 н/о н/о +16.2 +11.8 75 +15 +15 1000.4 993.6
23 17.08 Ю 8 н/о н/о +16.2 +12.2 77 +15 +15 1000.4 993.6
00 18.08 Ю 7
{9}
20 км {ливн. осадки} 1/0
[Ac trans]
+16.0 1000.2 995.1
01 18.08 Ю 7 н/о н/о +16.1 +12.6 80 +15 +15 1000.2 993.4
02 18.08 Ю 7 н/о н/о +16.1 +12.8 81 +15 +15 999.6 992.8
03 18.08 Ю 6 20 км {морось} 1/0 1500 м
[Ac cast]
+16.0 999.1 994.0
04 18.08 Ю 8 н/о н/о +16.0 +13.1 83 +14 +14 998.6 991.8
05 18.08 Ю 7 н/о н/о +15.9 +11.8 77 +14 +14 998.5 991.7
06 18.08 Ю 7
{9}
20 км 3/1 300 м
[Cu med, cong Ac trans]
+15.8 998.4 993.3
07 18.08 Ю 8 н/о н/о +15.9 +11.7 76 +14 +14 998.3 991.6
08 18.08 Ю 9 н/о н/о +15.5 +11.3 76 +13 +13 998.0 991.2
09 18.08 Ю 8 20 км {метель} 4/3 600 м
[Cu Sc Ac trans Cs]
+50.3 997.9 992.6
10 18.08 Ю 9 н/о н/о +15.6 +11.3 76 +14 +14 998.0 991.2
11 18.08 Ю 8 н/о н/о +15.5 +11.7 78 +14 +14 998.0 991.2
12 18.08 Ю 9
{10}
20 км {дождь} 4/4 300 м
[Cu Sc Ac trans]
+15.4 998.0 992.9
13 18.08 Ю 9 н/о н/о +15.5 +11.5 77 +13 +13 998.0 991.2
14 18.08 Ю 10 н/о н/о +15.4 +11.3 77 +13 +13 998.3 991.4
15 18.08 ЮЗ 10 20 км {дождь} 6/4 300 м
[Cu Sc Ci sp]
+15.4 998.4 993.3
16 18.08 Ю 10 н/о н/о +15.7 +11.3 75 +14 +14 998.6 991.8
17 18.08 Ю 10 н/о н/о +16.0 +11.0 72 +14 +14 998.4 991.6
18 18.08 Ю 10
{11}
10 км {гроза} 5/0
[Ac trans]
+16.1 998.5 993.4
19 18.08 Ю 10 н/о н/о +16.2 +12.1 77 +14 +14 998.6 991.8
20 18.08 Ю 10 н/о н/о +16.3 +12.4 78 +14 +14 998.8 992.0
21 18.08 ЮЗ 10 20 км 3/0
[Ac trans]
+16.3 999.1 994.0
22 18.08 ЮЗ 12 н/о н/о +16.0 +11.6 75 +14 +14 999.0 992.2
23 18.08 ЮЗ 11 н/о н/о +15.9 +12.0 78 +14 +14 999.3 992.5
00 19.08 ЮЗ 11
{13}
20 км {метель} 5/5 600 м
[Sc]
+15.7 999.5 994.5
01 19.08 ЮЗ 10 н/о н/о +15.7 +10.9 73 +14 +14 999.9 993.0
02 19.08 ЮЗ 11 н/о н/о +15.5 +10.6 73 +13 +13 1000.1 993.2
03 19.08 ЮЗ 10 20 км {туман} 4/4 600 м
[Cu med, cong]
+15.4 1000.3 995.3
04 19.08 ЮЗ 10 н/о н/о +15.3 +10.6 74 +13 +13 1000.9 994.1
05 19.08 ЮЗ 9 н/о н/о +15.3 +11.2 77 +13 +13 1001.5 994.7
06 19.08 ЮЗ 11 50 м 4/3 <50 м
[Cu med, cong Ac As]
+15.3 1001.8 996.8
07 19.08 ЮЗ 8 н/о н/о +15.5 +11.5 77 +14 +14 1002.7 995.9
09 19.08 ЮЗ 11 50 м {гроза} 4/4 <50 м
[Cu med, cong Ac trans]
+15.3 1003.8 998.8
10 19.08 ЮЗ 8 н/о н/о +15.2 +11.6 79 +13 +13 1004.4 997.6
11 19.08 ЮЗ 8 н/о н/о +15.4 +12.0 80 +13 +13 1005.1 998.2
12 19.08 ЮЗ 9
{10}
50 км {гроза} 8/4 300 м
[Cb calv Ac As]
+14.8 1005.5 1000.5
13 19.08 ЮЗ 9 н/о н/о +15.8 +11.9 78 +14 +14 1006.6 999.8
14 19.08 ЮЗ 9 н/о н/о +15.4 +12.0 80 +13 +13 1007.3 1000.5
15 19.08 ЮЗ 9 20 км {гроза} 9/9 600 м
[Cu Sc]
+15.3 1007.7 1002.6
17 19.08 ЮЗ 9 н/о н/о +15.7 +11.1 74 +14 +14 1008.6 1001.7
18 19.08 ЮЗ 9
{12}
20 км {гроза} 1/1 600 м
[Cu med, cong Ac trans]
+15.7 1009.0 1003.8
19 19.08 ЮЗ 9 н/о н/о +15.8 +11.7 77 +14 +14 1009.6 1002.7
20 19.08 ЮЗ 9 н/о н/о +15.7 +12.1 79 +14 +14 1010.3 1003.4
21 19.08 ЮЗ 8 20 км {гроза} 1/0 2000 м
[Ac trans]
+15.7 1010.3 1005.3
22 19.08 ЮЗ 8 н/о н/о +15.2 +11.8 80 +13 +13 1010.6 1003.7
23 19.08 ЮЗ 7 н/о н/о +15.1 +10.4 73 +13 +13 1010.8 1003.9
00 20.08 ЮЗ 8
{10}
50 км {дождь} 1/1 600 м
[Cu med, cong]
+15.4 1010.6 1005.4
01 20.08 ЮЗ 9 н/о н/о +15.3 +11.6 79 +13 +13 1010.8 1003.9
02 20.08 ЮЗ 8 н/о н/о +15.1 +11.3 78 +13 +13 1011.3 1004.4
03 20.08 ЮЗ 8 50 км {дождь} 1/1 600 м
[Cu med, cong]
+15.0 1011.3 1006.1
04 20.08 З 6 н/о н/о +14.5 +10.7 78 +13 +13 1011.9 1005.0
05 20.08 ЮЗ 7 н/о н/о +14.8 +10.3 74 +13 +13 1012.5 1005.6
06 20.08 ЮЗ 7
{10}
20 км {морось} 6/5 300 м
[Cu med, cong Ac trans]
+14.7 1012.7 1007.5
07 20.08 ЮЗ 6 н/о н/о +14.8 +11.0 78 +13 +13 1013.5 1006.6
08 20.08 ЮЗ 7 н/о н/о +14.7 +12.0 84 +13 +13 1014.2 1007.3
09 20.08 ЮЗ 6 10 км {морось} 9/8 300 м
[Cb calv Ac As]
+14.8 1013.5 1008.3
10 20.08 СЗ 6 н/о н/о +13.6 +11.7 88 +11 +11 1015.8 1008.8
11 20.08 СЗ 5 н/о н/о +14.1 +10.0 76 +12 +12 1016.6 1009.6
12 20.08 СЗ 5
{11}
20 км {метель} 9/8 600 м
[Cu Sc Ac As]
+15.0 1017.0 1011.8
13 20.08 З 5 н/о н/о +15.8 +8.4 61 +15 +15 1017.8 1010.9
14 20.08 З 6 н/о н/о +15.5 +8.0 61 +14 +14 1018.3 1011.4
15 20.08 З 5 50 км 6/4 600 м
[Cu Sc Ac As]
+16.0 1018.9 1013.7
16 20.08 З 5 н/о н/о +15.8 +7.9 59 +15 +15 1019.7 1012.8
17 20.08 З 4 н/о н/о +15.0 +8.6 66 +14 +14 1020.4 1013.5
18 20.08 З 5
{7}
50 км {метель} 9/8 300 м
[Cu Sc Ac As]
+14.5 1020.8 1015.7
19 20.08 З 5 н/о н/о +14.2 +8.2 67 +13 +13 1021.6 1014.6
20 20.08 З 4 н/о н/о +14.0 +7.2 64 +13 +13 1022.1 1015.1
21 20.08 З 5 50 км {метель} 9/1 600 м
[Cu hum Ac As]
+13.8 1022.3 1017.1
22 20.08 З 4 н/о н/о +13.7 +7.9 68 +12 +12 1022.6 1015.6
23 20.08 З 4 н/о н/о +13.5 +8.2 70 +12 +12 1022.9 1015.9
00 21.08 З 4
{7}
50 км 3/3 600 м
[Cu hum]
+13.5 1022.9 1017.7
01 21.08 З 3 н/о н/о +13.5 +8.9 74 +12 +12 1023.1 1016.1
02 21.08 ЮЗ 2 н/о н/о +13.5 +9.5 77 +13 +13 1023.4 1016.4
03 21.08 ЮЗ 3 50 км 3/1 600 м
[Cu hum Ac As]
+13.8 1023.4 1018.2
05 21.08 Ю 3 н/о н/о +14.2 +11.1 82 +13 +13 1023.6 1016.6
07 21.08 Ю 4 н/о н/о +15.0 +11.9 82 +14 +14 1023.9 1016.9
08 21.08 ЮЗ 5 н/о н/о +15.2 +10.7 74 +14 +14 1024.0 1017.0
09 21.08 ЮЗ 5 50 км 1/1 300 м
[Cu med, cong]
+15.4 1024.0 1018.9

 

Местоположение метеостанции Экофиск (Норвегия): широта 56.54 долгота 3.22 высота над уровнем моря 50 м.

В архиве по умолчанию представлена погода в Экофиске за последнюю неделю. Архивные данные за месяц целиком и за предыдущие месяцы, начиная с января 2011 года, Вы можете получить, выбрав интересующий диапазон дат из раскрывающегося списка и нажав кнопку "Ввод!".


*Определитесь, кто Вы:
робот инопланетянин человек

Внимание! Время в таблицах - всемирное. Для получения местного времени необходимо прибавить поправку, которая равна 1 ч.

Смотрите также архив погоды в соседних городах и на ближайших метеорологических станциях:

Погода на Платформе A12-cpp (Нидерланды) (130 км)
Погода на Платформе F3-fb-1 (Нидерланды) (210 км)
Погода на Платформе D15-fa-1 (Нидерланды) (248 км)
Погода в Айгеройе (Норвегия) (264 км)
Погода на Маяке Lista (Норвегия) (266 км)
Погода на Маяке Obrestad (Норвегия) (273 км)
Погода на Платформе F16-a (Нидерланды) (274 км)
Погода на Маяке Lindesnes (Норвегия) (281 км)
Погода в Сархейме (Норвегия) (286 км)
Погода в Эйк-Хоуве (Норвегия) (294 км)

Пояснения к столбцам:

Ветер - указаны скорость ветра в м/с - средняя за 10 мин, порывы в срок и между сроками (в фигурных скобках) и направление, откуда дует ветер: С - северный, СВ - северо-восточный, В - восточный, ЮВ - юго-восточный, Ю - южный, ЮЗ - юго-западный, З - западный, СЗ - северо-западный.
Видимость - горизонтальная дальность видимости в метрах или километрах. При видимости от 1 до 10 км при отсутствии осадков обычно наблюдается дымка, при ухудшении видимости до 1 км и менее - туман. В сухую погоду видимость может ухудшаться дымом, пылью или мглою.
Явления - указаны атмосферные явления, наблюдавшиеся в срок или в последний час перед сроком; фигурными скобками обозначены явления, наблюдавшиеся между сроками (за 1-3 часа до срока); квадратными скобками обозначены град или гололедные отложения с указанием их диаметра в мм.
Облачность - указаны через наклонную черту общая и нижняя облачность в баллах и высота нижней границы облаков в метрах; квадратными скобками обозначены формы облаков: Ci - перистые, Cs - перисто-слоистые, Cc - перисто-кучевые, Ac - высококучевые, As - высокослоистые, Sc - слоисто-кучевые, Ns - слоисто-дождевые, Cu - кучевые, Cb - кучево-дождевые. Подробнее классификацию облаков см. в Атласе облаков (PDF).
T - Температура воздуха - температура, измеренная на высоте 2 м над землей.
Td - Температура точки росы - температура, при понижении до которой содержащийся в воздухе водяной пар достигнет насыщения.
f - Относительная влажность воздуха - влажноcть воздуха, измеренная на высоте 2 м над землей.
Te - Эффективная температура - температура, которую ощущает одетый по сезону человек в тени. Характеристика душности погоды. При расчете учитывается влияние влажности воздуха и скорости ветра на теплоощущения человека.
Tes - Эффективная температура на солнце - температура, которую ощущает человек, с поправкой на солнечный нагрев. Характеристика знойности погоды. Зависит от высоты солнца над горизонтом, облачности и скорости ветра. Ночью, в пасмурную погоду, а также при ветре 12 м/с и более поправка равна нулю.
P - Атмосферное давление - приведенное к уровню моря атмосферное давление.
Po - Атмосферное давление - измеренное на уровне метеостанции атмосферное давление.
Tmin - Минимальная температура - минимум температуры воздуха на высоте 2 м над землей.
Tmax - Максимальная температура - максимум температуры воздуха на высоте 2 м над землей.
R - Количество осадков - Количество выпавших осадков за период времени, мм. При наведении курсора мыши на число - период времени, за который выпало указанное количество осадков.
R24 - Количество осадков - Количество выпавших осадков за 24 часа, мм.
S - Снежный покров - Высота снежного покрова, см. При наведении курсора мыши на число - состояние снежного покрова и степень покрытия местности в баллах.